Weather History for KJAN - April, 2013

Change the Weather History Date:

Saturday, April 6, 2013

  Actual Average Record
Temperature  
Mean Temperature 59 °F 62 °F  
Max Temperature 76 °F 74 °F 90 °F (1911)
Min Temperature 41 °F 50 °F 32 °F (1971)
Degree Days  
Heating Degree Days 6 5  
Month to date heating degree days 48 34  
Since 1 July heating degree days 2191 2304  
Cooling Degree Days 0 2  
Month to date cooling degree days 0 12  
Year to date cooling degree days 17 49  
Growing Degree Days 8 (Base 50)    
Moisture  
Dew Point 43 °F    
Average Humidity 62    
Maximum Humidity 93    
Minimum Humidity 31    
Precipitation  
Precipitation 0.00 in 0.18 in 7.38 in (2003)
Month to date precipitation 0.41 1.07  
Year to date precipitation 23.44 15.84  
Sea Level Pressure  
Sea Level Pressure 30.09 in    
Wind  
Wind Speed 7 mph (South)    
Max Wind Speed 16 mph    
Max Gust Speed 21 mph    
Visibility 10 miles    
Events      
T = Trace of Precipitation, MM = Missing Value Source: NWS Daily Summary

Daily Weather History Graph

Daily Weather History Graph

Search for Another Location

Airport or City:

Trip Planner

Search our weather history database for the weather conditions in past years. The results will help you decide how hot, cold, wet, or windy it might be!

Date:

Astronomy

Apr. 06, 2013 Rise Set
Actual Time 6:41 AM CDT 7:23 PM CDT
Civil Twilight 6:17 AM CDT 7:48 PM CDT
Nautical Twilight 5:47 AM CDT 8:18 PM CDT
Astronomical Twilight 5:17 AM CDT 8:47 PM CDT
Moon 4:13 AM CDT 4:03 PM CDT
Length of Visible Light 13h 31m
Length of Day
12h 42m
Waning Crescent, 15% of the Moon is Illuminated
Apr 6
Waning Crescent
Apr 10
New
Apr 18
First Quarter
Apr 25
Full
May 2
Last Quarter

Hourly Weather History & Observations

Time (CDT) Temp. Dew Point Humidity Pressure Visibility Wind Dir Wind Speed Gust Speed Precip Events Conditions
12:54 AM 45.0 °F 42.1 °F 90% 30.14 in 10.0 mi Calm Calm - N/A   Clear
1:54 AM 44.1 °F 41.0 °F 89% 30.13 in 10.0 mi Calm Calm - N/A   Clear
2:54 AM 44.1 °F 42.1 °F 93% 30.10 in 10.0 mi Calm Calm - N/A   Clear
3:54 AM 43.0 °F 39.9 °F 89% 30.10 in 9.0 mi Calm Calm - N/A   Clear
4:54 AM 42.1 °F 39.9 °F 92% 30.10 in 8.0 mi Calm Calm - N/A   Clear
5:54 AM 42.1 °F 39.9 °F 92% 30.11 in 8.0 mi Calm Calm - N/A   Clear
6:54 AM 41.0 °F 39.0 °F 93% 30.13 in 7.0 mi Calm Calm - N/A   Clear
7:54 AM 46.9 °F 44.1 °F 90% 30.14 in 8.0 mi Calm Calm - N/A   Clear
8:54 AM 55.0 °F 46.9 °F 74% 30.14 in 10.0 mi SSE 5.8 mph - N/A   Clear
9:54 AM 61.0 °F 45.0 °F 56% 30.15 in 10.0 mi South 8.1 mph - N/A   Clear
10:54 AM 66.0 °F 42.1 °F 42% 30.14 in 10.0 mi South 13.8 mph - N/A   Clear
11:54 AM 69.1 °F 41.0 °F 36% 30.13 in 10.0 mi South 13.8 mph 20.7 mph N/A   Clear
12:54 PM 72.0 °F 41.0 °F 33% 30.11 in 10.0 mi South 12.7 mph - N/A   Clear
1:54 PM 71.1 °F 41.0 °F 34% 30.09 in 10.0 mi South 10.4 mph 18.4 mph N/A   Clear
2:54 PM 73.0 °F 42.1 °F 33% 30.06 in 10.0 mi South 5.8 mph - N/A   Clear
3:54 PM 75.0 °F 42.1 °F 31% 30.04 in 10.0 mi SSW 12.7 mph - N/A   Clear
4:54 PM 75.0 °F 42.1 °F 31% 30.01 in 10.0 mi South 9.2 mph - N/A   Clear
5:54 PM 73.9 °F 42.1 °F 32% 30.01 in 10.0 mi South 12.7 mph - N/A   Clear
6:54 PM 71.1 °F 43.0 °F 36% 29.99 in 10.0 mi SSE 12.7 mph - N/A   Clear
7:54 PM 64.0 °F 46.0 °F 52% 30.00 in 10.0 mi South 8.1 mph - N/A   Clear
8:54 PM 64.9 °F 46.9 °F 52% 30.02 in 10.0 mi South 9.2 mph - N/A   Clear
9:54 PM 62.1 °F 46.0 °F 56% 30.05 in 10.0 mi South 9.2 mph - N/A   Clear
10:54 PM 61.0 °F 48.0 °F 62% 30.06 in 10.0 mi South 11.5 mph - N/A   Clear
11:54 PM 60.1 °F 50.0 °F 69% 30.06 in 10.0 mi South 11.5 mph - N/A   Clear